#timestamp,LO_Frequency,Hit,StdDev 
1631980815.5,286047002.8,Y
1631980835.4,286047002.5,P
1631980855.2,286047002.4,N
1631980875.0,286047000.1,N
1631980875.9,286047000.1,N
1631980895.8,286047002.7,N
1631980915.6,286047002.6,N
1631980935.4,286047002.5,N
1631980955.3,286047002.3,N
1631980975.1,286047000.6,N
1631980995.9,286047000.4,N
1631981015.7,286047002.8,N
1631981035.5,286047002.6,N
1631981055.4,286047002.8,N
1631981075.2,286047002.0,N
1631981095.1,286047002.2,N
1631981096.0,286047002.2,N
1631981115.8,286047002.2,N
1631981135.6,286047002.5,N
1631981155.5,286047002.3,N
1631981175.3,286047000.4,N
1631981195.1,286047002.6,N
1631981215.9,286047001.5,N
1631981235.7,286047003.0,N
1631981255.6,286047005.5,Y
1631981275.4,286047003.9,P
1631981295.2,286047000.2,N
1631981315.1,286047002.7,N
1631981316.0,286047002.7,N
1631981335.8,286047002.3,N
1631981355.6,286047001.6,N
1631981375.5,286047001.5,N
1631981395.3,286047002.2,N
1631981415.2,286047000.8,N
1631981435.9,286047001.6,N
1631981455.7,286046999.9,N
1631981475.6,286047000.9,N
1631981495.4,286047000.6,N
1631981515.2,286047000.9,N
1631981535.1,286047000.9,N
1631981536.0,286047000.9,N
1631981555.8,286047001.0,N
1631981575.7,286047000.0,N
1631981595.5,286047000.9,N
1631981615.3,286046998.5,N
1631981635.2,286046998.4,N
1631981655.0,286046998.5,N
1631981655.9,286046998.5,N
1631981675.8,286047000.4,N
1631981695.6,286047002.8,N
1631981715.4,286047002.8,N
1631981735.3,286047001.0,N
1631981755.1,286047000.6,N
1631981775.8,286047000.8,N
1631981795.7,286046998.8,N
1631981815.5,286046998.6,N
1631981835.4,286046998.1,N
1631981855.2,286046998.7,N
1631981875.0,286047000.8,N
1631981875.9,286047000.8,N
1631981895.8,286047000.3,N
1631981915.6,286047000.3,N
1631981935.4,286047001.0,N
1631981955.3,286047000.3,N
1631981975.1,286047000.3,N
1631981995.9,286047000.4,N
1631982015.7,286047000.5,N
1631982035.5,286047001.2,N
1631982055.4,286047000.5,N
1631982075.2,286047000.8,N
1631982095.1,286046998.1,N
1631982096.0,286046998.1,N
1631982115.8,286046998.2,N
1631982135.6,286046998.7,N
1631982155.5,286046999.3,N
1631982175.3,286046999.1,N
1631982195.1,286046999.5,N
1631982215.9,286046996.7,N
1631982235.7,286046999.5,N
1631982255.6,286046998.4,N
1631982275.4,286047000.7,N
1631982325.3,286047001.6,E
1631982335.2,286047000.2,N
1631982355.0,286047001.2,P
1631982355.9,286047001.2,N
1631982375.8,286046999.9,N
1631982395.6,286046999.7,N
1631982415.4,286047000.0,N
1631982435.3,286047000.5,N
1631982455.1,286046998.7,N
1631982475.9,286046998.3,N
1631982495.7,286046998.4,N
1631982515.5,286046999.2,N
1631982535.4,286046999.4,N
1631982555.2,286046998.8,N
1631982575.0,286046998.9,N
1631982575.9,286046998.9,N
1631982595.8,286046998.9,N
1631982615.6,286046999.6,N
1631982635.5,286046998.8,N
1631982655.3,286046998.8,N
1631982675.1,286046999.5,N
1631982695.9,286046999.5,N
1631982715.7,286046999.5,N
1631982735.6,286046999.0,N
1631982755.4,286046998.2,N
1631982775.2,286046999.3,N
1631982795.1,286046999.1,N
1631982796.0,286046999.1,N
1631982815.8,286047001.1,N
1631982835.6,286046998.7,N
1631982855.5,286046999.2,N
1631982875.3,286046998.1,N
1631982895.2,286046998.7,N
1631982915.9,286046999.6,N
1631982935.7,286046996.8,Y
1631982955.6,286046999.5,P
1631982975.4,286046999.3,P
1631982995.2,286046998.6,P
1631983015.1,286046996.5,Y
1631983016.0,286046996.5,P
1631983035.8,286046998.4,N
1631983055.7,286047000.3,N
1631983075.5,286047000.5,N
1631983095.3,286047000.8,N
1631983115.2,286047000.6,N
1631983135.0,286047000.7,N
1631983135.9,286047000.7,N
1631983155.8,286047000.2,N
1631983175.6,286047000.3,N
1631983195.4,286046998.1,N
1631983215.3,286047000.6,N
1631983235.1,286046998.3,N
1631983255.9,286047000.9,N
1631983275.7,286047001.1,N
1631983295.5,286047001.0,N
1631983315.7,286046999.7,N
1631983335.6,286047000.0,N
1631983355.4,286047000.6,N
1631983375.3,286047000.3,N
1631983395.1,286047000.3,N
1631983396.0,286047000.3,N
1631983415.8,286047000.2,N
1631983435.7,286047000.9,N
1631983455.5,286046998.3,N
1631983475.3,286047001.2,N
1631983495.2,286047000.3,N
1631983515.0,286047002.5,N
1631983515.9,286047002.5,N
1631983535.8,286047001.9,N
1631983555.6,286047002.0,N
1631983575.4,286047001.9,N
1631983595.3,286047002.1,N
1631983615.1,286047002.0,N
1631983635.9,286047004.3,Y
1631983655.7,286047002.6,P
1631983675.5,286047001.1,N
1631983695.4,286047001.0,N
1631983715.2,286046999.9,N
1631983735.0,286046999.3,N
1631983735.9,286046999.3,N
1631983755.8,286046998.3,N
1631983775.6,286046996.5,N
1631983795.5,286046999.3,N
1631983815.3,286047000.8,N
1631983835.1,286047000.7,N
1631983855.9,286046998.1,N
1631983875.7,286046998.1,N
1631983895.5,286046998.3,N
1631983915.4,286046998.5,N
1631983935.2,286046998.7,N
1631983955.1,286046998.2,N
1631983956.0,286046998.2,N
1631983975.8,286046998.6,N
1631983995.6,286047000.6,N
1631984015.5,286047000.5,N
1631984035.3,286046998.1,N
1631984055.1,286047001.0,N
1631984075.9,286047000.6,N
1631984095.7,286046998.2,N
1631984115.6,286046999.3,N
1631984135.4,286046997.0,N
1631984155.2,286046999.4,N
1631984175.1,286046996.9,N
1631984176.0,286046996.9,N
1631984195.8,286046999.6,N
1631984215.7,286046997.6,N
1631984235.5,286046997.6,N
1631984255.3,286046998.6,N
1631984275.2,286046998.4,N
1631984295.0,286046998.7,N
1631984295.9,286046998.7,N
1631984315.7,286047000.9,N
1631984335.6,286047000.1,N
1631984355.4,286046999.7,N
1631984375.3,286047000.7,N
1631984395.1,286047000.7,N
1631984396.0,286047000.7,N
